Simultaneous Nadir Overpasses (SNOs) Predictions

Prediction of SNOs between METOP-B and NOAA-19 Satellite Orbit:

Table of predicted SNOs for the next 14.0 days since TLE Epoch: 1/4/2020
Index Date (METOP-B) Time (METOP-B) Lat,Lon (METOP-B) SZA (METOP-B ) Date (NOAA-19) Time (NOAA-19) Lat,Lon (NOAA-19) SZA (NOAA-19 ) Distance(km) Time Diff (sec)
1 01/08/2020 07:20:12 79.74, 89.88 102.47 01/08/2020 07:19:11 79.72, 89.85 102.43 2.31 61
2 01/08/2020 08:10:54 -79.71,-103.03 77.58 01/08/2020 08:10:06 -79.72,-102.97 77.57 2.14 48
3 01/08/2020 09:01:34 79.72, 64.43 102.44 01/08/2020 09:01:12 79.72, 64.26 102.43 3.39 22
4 01/08/2020 09:52:15 -79.73,-128.20 77.56 01/08/2020 09:52:06 -79.70,-128.26 77.59 2.86 9
5 01/08/2020 10:42:56 79.71, 38.99 102.41 01/08/2020 10:43:12 79.70, 38.97 102.41 0.83 16
6 01/08/2020 11:33:38 -79.68,-153.92 77.63 01/08/2020 11:34:07 -79.71,-153.85 77.60 3.48 29
7 01/08/2020 12:24:18 79.70, 13.54 102.39 01/08/2020 12:25:12 79.69, 13.67 102.39 3.04 54




NCC Satellite Simultaneous Nadir Overpasses (SNOs) Prediction Service
